Year,Month,Day,Hour,Minute,Value (Times are PST for temperature in C)
2015,02,05,00,00,6.20
2015,02,05,00,01,6.20
2015,02,05,00,02,6.20
2015,02,05,00,03,6.20
2015,02,05,00,04,6.20
2015,02,05,00,05,6.20
2015,02,05,00,06,6.20
2015,02,05,00,07,6.20
2015,02,05,00,08,6.20
2015,02,05,00,09,6.20
2015,02,05,00,10,6.20
2015,02,05,00,11,6.20
2015,02,05,00,12,6.20
2015,02,05,00,13,6.20
2015,02,05,00,14,6.20
2015,02,05,00,15,6.20
2015,02,05,00,16,6.20
2015,02,05,00,17,6.20
2015,02,05,00,18,6.20
2015,02,05,00,19,6.20
2015,02,05,00,20,6.20
2015,02,05,00,21,6.20
2015,02,05,00,22,6.20
2015,02,05,00,23,6.20
2015,02,05,00,24,6.20
2015,02,05,00,25,6.10
2015,02,05,00,26,6.10
2015,02,05,00,27,6.10
2015,02,05,00,28,6.10
2015,02,05,00,29,6.10
2015,02,05,00,30,6.10
2015,02,05,00,31,6.10
2015,02,05,00,32,6.10
2015,02,05,00,33,6.10
2015,02,05,00,34,6.10
2015,02,05,00,35,6.10
2015,02,05,00,36,6.10
2015,02,05,00,37,6.10
2015,02,05,00,38,6.10
2015,02,05,00,39,6.10
2015,02,05,00,40,6.10
2015,02,05,00,41,6.10
2015,02,05,00,42,6.10
2015,02,05,00,43,6.10
2015,02,05,00,44,6.10
2015,02,05,00,45,6.10
2015,02,05,00,46,6.10
2015,02,05,00,47,6.10
2015,02,05,00,48,6.10
2015,02,05,00,49,6.10
2015,02,05,00,50,6.10
2015,02,05,00,51,6.10
2015,02,05,00,52,6.10
2015,02,05,00,53,6.10
2015,02,05,00,54,6.10
2015,02,05,00,55,6.10
2015,02,05,00,56,6.10
2015,02,05,00,57,6.10
2015,02,05,00,58,6.10
2015,02,05,00,59,6.10
2015,02,05,01,00,6.10
2015,02,05,01,01,6.10
2015,02,05,01,02,6.10
2015,02,05,01,03,6.10
2015,02,05,01,04,6.10
2015,02,05,01,05,6.10
2015,02,05,01,06,6.10
2015,02,05,01,07,6.10
2015,02,05,01,08,6.10
2015,02,05,01,09,6.10
2015,02,05,01,10,6.10
2015,02,05,01,11,6.10
2015,02,05,01,12,6.10
2015,02,05,01,13,6.10
2015,02,05,01,14,6.10
2015,02,05,01,15,6.10
2015,02,05,01,16,6.10
2015,02,05,01,17,6.10
2015,02,05,01,18,6.10
2015,02,05,01,19,6.10
2015,02,05,01,20,6.10
2015,02,05,01,21,6.10
2015,02,05,01,22,6.10
2015,02,05,01,23,6.10
2015,02,05,01,24,6.10
2015,02,05,01,25,6.10
2015,02,05,01,26,6.10
2015,02,05,01,27,6.10
2015,02,05,01,28,6.10
2015,02,05,01,29,6.10
2015,02,05,01,30,6.10
2015,02,05,01,31,6.10
2015,02,05,01,32,6.10
2015,02,05,01,33,6.10
2015,02,05,01,34,6.10
2015,02,05,01,35,6.10
2015,02,05,01,36,6.10
2015,02,05,01,37,6.10
2015,02,05,01,38,6.10
2015,02,05,01,39,6.10
2015,02,05,01,40,6.10
2015,02,05,01,41,6.10
2015,02,05,01,42,6.10
2015,02,05,01,43,6.10
2015,02,05,01,44,6.10
2015,02,05,01,45,6.10
2015,02,05,01,46,6.10
2015,02,05,01,47,6.10
2015,02,05,01,48,6.10
2015,02,05,01,49,6.10
2015,02,05,01,50,6.10
2015,02,05,01,51,6.10
2015,02,05,01,52,6.10
2015,02,05,01,53,6.10
2015,02,05,01,54,6.10
2015,02,05,01,55,6.10
2015,02,05,01,56,6.10
2015,02,05,01,57,6.10
2015,02,05,01,58,6.10
2015,02,05,01,59,6.10
2015,02,05,02,00,6.10
2015,02,05,02,01,6.10
2015,02,05,02,02,6.10
2015,02,05,02,03,6.10
2015,02,05,02,04,6.10
2015,02,05,02,05,6.20
2015,02,05,02,06,6.20
2015,02,05,02,07,6.20
2015,02,05,02,08,6.20
2015,02,05,02,09,6.20
2015,02,05,02,10,6.20
2015,02,05,02,11,6.20
2015,02,05,02,12,6.20
2015,02,05,02,13,6.20
2015,02,05,02,14,6.20
2015,02,05,02,15,6.20
2015,02,05,02,16,6.20
2015,02,05,02,17,6.20
2015,02,05,02,18,6.20
2015,02,05,02,19,6.20
2015,02,05,02,20,6.20
2015,02,05,02,21,6.20
2015,02,05,02,22,6.20
2015,02,05,02,23,6.20
2015,02,05,02,24,6.20
2015,02,05,02,25,6.20
2015,02,05,02,26,6.20
2015,02,05,02,27,6.20
2015,02,05,02,28,6.20
2015,02,05,02,29,6.20
2015,02,05,02,30,6.20
2015,02,05,02,31,6.20
2015,02,05,02,32,6.20
2015,02,05,02,33,6.20
2015,02,05,02,34,6.20
2015,02,05,02,35,6.20
2015,02,05,02,36,6.20
2015,02,05,02,37,6.20
2015,02,05,02,38,6.20
2015,02,05,02,39,6.20
2015,02,05,02,40,6.20
2015,02,05,02,41,6.20
2015,02,05,02,42,6.20
2015,02,05,02,43,6.20
2015,02,05,02,44,6.20
2015,02,05,02,45,6.20
2015,02,05,02,46,6.20
2015,02,05,02,47,6.20
2015,02,05,02,48,6.20
2015,02,05,02,49,6.20
2015,02,05,02,50,6.20
2015,02,05,02,51,6.20
2015,02,05,02,52,6.20
2015,02,05,02,53,6.20
2015,02,05,02,54,6.20
2015,02,05,02,55,6.20
2015,02,05,02,56,6.20
2015,02,05,02,57,6.20
2015,02,05,02,58,6.20
2015,02,05,02,59,6.20
2015,02,05,03,00,6.20
2015,02,05,03,01,6.20
2015,02,05,03,02,6.20
2015,02,05,03,03,6.20
2015,02,05,03,04,6.20
2015,02,05,03,05,6.20
2015,02,05,03,06,6.20
2015,02,05,03,07,6.20
2015,02,05,03,08,6.20
2015,02,05,03,09,6.20
2015,02,05,03,10,6.20
2015,02,05,03,11,6.20
2015,02,05,03,12,6.20
2015,02,05,03,13,6.20
2015,02,05,03,14,6.20
2015,02,05,03,15,6.20
2015,02,05,03,16,6.20
2015,02,05,03,17,6.20
2015,02,05,03,18,6.30
2015,02,05,03,19,6.20
2015,02,05,03,20,6.30
2015,02,05,03,21,6.30
2015,02,05,03,22,6.30
2015,02,05,03,23,6.30
2015,02,05,03,24,6.30
2015,02,05,03,25,6.30
2015,02,05,03,26,6.30
2015,02,05,03,27,6.30
2015,02,05,03,28,6.30
2015,02,05,03,29,6.30
2015,02,05,03,30,6.30
2015,02,05,03,31,6.30
2015,02,05,03,32,6.30
2015,02,05,03,33,6.30
2015,02,05,03,34,6.30
2015,02,05,03,35,6.30
2015,02,05,03,36,6.30
2015,02,05,03,37,6.30
2015,02,05,03,38,6.30
2015,02,05,03,39,6.30
2015,02,05,03,40,6.30
2015,02,05,03,41,6.30
2015,02,05,03,42,6.30
2015,02,05,03,43,6.30
2015,02,05,03,44,6.30
2015,02,05,03,45,6.30
2015,02,05,03,46,6.30
2015,02,05,03,47,6.30
2015,02,05,03,48,6.30
2015,02,05,03,49,6.30
2015,02,05,03,50,6.30
2015,02,05,03,51,6.30
2015,02,05,03,52,6.30
2015,02,05,03,53,6.30
2015,02,05,03,54,6.30
2015,02,05,03,55,6.30
2015,02,05,03,56,6.30
2015,02,05,03,57,6.30
2015,02,05,03,58,6.30
2015,02,05,03,59,6.30
2015,02,05,04,00,6.30
2015,02,05,04,01,6.30
2015,02,05,04,02,6.30
2015,02,05,04,03,6.30
2015,02,05,04,04,6.30
2015,02,05,04,05,6.30
2015,02,05,04,06,6.30
2015,02,05,04,07,6.30
2015,02,05,04,08,6.30
2015,02,05,04,09,6.30
2015,02,05,04,10,6.30
2015,02,05,04,11,6.30
2015,02,05,04,12,6.30
2015,02,05,04,13,6.30
2015,02,05,04,14,6.30
2015,02,05,04,15,6.30
2015,02,05,04,16,6.30
2015,02,05,04,17,6.30
2015,02,05,04,18,6.30
2015,02,05,04,19,6.30
2015,02,05,04,20,6.30
2015,02,05,04,21,6.30
2015,02,05,04,22,6.30
2015,02,05,04,23,6.40
2015,02,05,04,24,6.40
2015,02,05,04,25,6.40
2015,02,05,04,26,6.40
2015,02,05,04,27,6.40
2015,02,05,04,28,6.40
2015,02,05,04,29,6.40
2015,02,05,04,30,6.40
2015,02,05,04,31,6.40
2015,02,05,04,32,6.40
2015,02,05,04,33,6.40
2015,02,05,04,34,6.40
2015,02,05,04,35,6.40
2015,02,05,04,36,6.40
2015,02,05,04,37,6.40
2015,02,05,04,38,6.40
2015,02,05,04,39,6.40
2015,02,05,04,40,6.40
2015,02,05,04,41,6.40
2015,02,05,04,42,6.40
2015,02,05,04,43,6.40
2015,02,05,04,44,6.40
2015,02,05,04,45,6.40
2015,02,05,04,46,6.40
2015,02,05,04,47,6.40
2015,02,05,04,48,6.40
2015,02,05,04,49,6.40
2015,02,05,04,50,6.40
2015,02,05,04,51,6.40
2015,02,05,04,52,6.40
2015,02,05,04,53,6.40
2015,02,05,04,54,6.40
2015,02,05,04,55,6.40
2015,02,05,04,56,6.40
2015,02,05,04,57,6.50
2015,02,05,04,58,6.50
2015,02,05,04,59,6.50
2015,02,05,05,00,6.50
2015,02,05,05,01,6.50
2015,02,05,05,02,6.50
2015,02,05,05,03,6.50
2015,02,05,05,04,6.50
2015,02,05,05,05,6.50
2015,02,05,05,06,6.50
2015,02,05,05,07,6.50
2015,02,05,05,08,6.50
2015,02,05,05,09,6.50
2015,02,05,05,10,6.50
2015,02,05,05,11,6.50
2015,02,05,05,12,6.50
2015,02,05,05,13,6.60
2015,02,05,05,14,6.60
2015,02,05,05,15,6.60
2015,02,05,05,16,6.60
2015,02,05,05,17,6.60
2015,02,05,05,18,6.70
2015,02,05,05,19,6.70
2015,02,05,05,20,6.70
2015,02,05,05,21,6.80
2015,02,05,05,22,6.80
2015,02,05,05,23,6.80
2015,02,05,05,24,6.90
2015,02,05,05,25,6.90
2015,02,05,05,26,6.90
2015,02,05,05,27,7.00
2015,02,05,05,28,7.10
2015,02,05,05,29,7.10
2015,02,05,05,30,7.10
2015,02,05,05,31,7.20
2015,02,05,05,32,7.20
2015,02,05,05,33,7.20
2015,02,05,05,34,7.20
2015,02,05,05,35,7.30
2015,02,05,05,36,7.30
2015,02,05,05,37,7.30
2015,02,05,05,38,7.40
2015,02,05,05,39,7.40
2015,02,05,05,40,7.40
2015,02,05,05,41,7.50
2015,02,05,05,42,7.50
2015,02,05,05,43,7.50
2015,02,05,05,44,7.60
2015,02,05,05,45,7.60
2015,02,05,05,46,7.60
2015,02,05,05,47,7.60
2015,02,05,05,48,7.60
2015,02,05,05,49,7.60
2015,02,05,05,50,7.60
2015,02,05,05,51,7.70
2015,02,05,05,52,7.70
2015,02,05,05,53,7.70
2015,02,05,05,54,7.70
2015,02,05,05,55,7.70
2015,02,05,05,56,7.70
2015,02,05,05,57,7.70
2015,02,05,05,58,7.70
2015,02,05,05,59,7.70
2015,02,05,06,00,7.80
2015,02,05,06,01,7.80
2015,02,05,06,02,7.80
2015,02,05,06,03,7.80
2015,02,05,06,04,7.80
2015,02,05,06,05,7.80
2015,02,05,06,06,7.80
2015,02,05,06,07,7.80
2015,02,05,06,08,7.80
2015,02,05,06,09,7.80
2015,02,05,06,10,7.80
2015,02,05,06,11,7.70
2015,02,05,06,12,7.70
2015,02,05,06,13,7.70
2015,02,05,06,14,7.70
2015,02,05,06,15,7.70
2015,02,05,06,16,7.70
2015,02,05,06,17,7.70
2015,02,05,06,18,7.70
2015,02,05,06,19,7.70
2015,02,05,06,20,7.70
2015,02,05,06,21,7.70
2015,02,05,06,22,7.70
2015,02,05,06,23,7.70
2015,02,05,06,24,7.70
2015,02,05,06,25,7.70
2015,02,05,06,26,7.70
2015,02,05,06,27,7.70
2015,02,05,06,28,7.70
2015,02,05,06,29,7.70
2015,02,05,06,30,7.70
2015,02,05,06,31,7.70
2015,02,05,06,32,7.70
2015,02,05,06,33,7.70
2015,02,05,06,34,7.70
2015,02,05,06,35,7.70
2015,02,05,06,36,7.70
2015,02,05,06,37,7.60
2015,02,05,06,38,7.60
2015,02,05,06,39,7.60
2015,02,05,06,40,7.60
2015,02,05,06,41,7.60
2015,02,05,06,42,7.60
2015,02,05,06,43,7.60
2015,02,05,06,44,7.60
2015,02,05,06,45,7.70
2015,02,05,06,46,7.60
2015,02,05,06,47,7.70
2015,02,05,06,48,7.70
2015,02,05,06,49,7.70
2015,02,05,06,50,7.70
2015,02,05,06,51,7.70
2015,02,05,06,52,7.70
2015,02,05,06,53,7.70
2015,02,05,06,54,7.80
2015,02,05,06,55,7.80
2015,02,05,06,56,7.80
2015,02,05,06,57,7.80
2015,02,05,06,58,7.90
2015,02,05,06,59,7.90
2015,02,05,07,00,7.90
2015,02,05,07,01,7.90
2015,02,05,07,02,7.90
2015,02,05,07,03,8.00
2015,02,05,07,04,8.00
2015,02,05,07,05,8.00
2015,02,05,07,06,8.00
2015,02,05,07,07,8.00
2015,02,05,07,08,8.10
2015,02,05,07,09,8.10
2015,02,05,07,10,8.10
2015,02,05,07,11,8.10
2015,02,05,07,12,8.10
2015,02,05,07,13,8.10
2015,02,05,07,14,8.10
2015,02,05,07,15,8.10
2015,02,05,07,16,8.10
2015,02,05,07,17,8.10
2015,02,05,07,18,8.10
2015,02,05,07,19,8.10
2015,02,05,07,20,8.10
2015,02,05,07,21,8.10
2015,02,05,07,22,8.10
2015,02,05,07,23,8.20
2015,02,05,07,24,8.20
2015,02,05,07,25,8.20
2015,02,05,07,26,8.20
2015,02,05,07,27,8.20
2015,02,05,07,28,8.30
2015,02,05,07,29,8.30
2015,02,05,07,30,8.30
2015,02,05,07,31,8.30
2015,02,05,07,32,8.30
2015,02,05,07,33,8.30
2015,02,05,07,34,8.30
2015,02,05,07,35,8.30
2015,02,05,07,36,8.40
2015,02,05,07,37,8.40
2015,02,05,07,38,8.40
2015,02,05,07,39,8.50
2015,02,05,07,40,8.50
2015,02,05,07,41,8.60
2015,02,05,07,42,8.60
2015,02,05,07,43,8.70
2015,02,05,07,44,8.70
2015,02,05,07,45,8.70
2015,02,05,07,46,8.70
2015,02,05,07,47,8.70
2015,02,05,07,48,8.70
2015,02,05,07,49,8.70
2015,02,05,07,50,8.70
2015,02,05,07,51,8.70
2015,02,05,07,52,8.70
2015,02,05,07,53,8.80
2015,02,05,07,54,8.80
2015,02,05,07,55,8.80
2015,02,05,07,56,8.80
2015,02,05,07,57,8.80
2015,02,05,07,58,8.80
2015,02,05,07,59,8.80
2015,02,05,08,00,8.80
2015,02,05,08,01,8.80
2015,02,05,08,02,8.80
2015,02,05,08,03,8.80
2015,02,05,08,04,8.80
2015,02,05,08,05,8.70
2015,02,05,08,06,8.80
2015,02,05,08,07,8.70
2015,02,05,08,08,8.70
2015,02,05,08,09,8.70
2015,02,05,08,10,8.80
2015,02,05,08,11,8.70
2015,02,05,08,12,8.70
2015,02,05,08,13,8.70
2015,02,05,08,14,8.70
2015,02,05,08,15,8.70
2015,02,05,08,16,8.70
2015,02,05,08,17,8.70
2015,02,05,08,18,8.70
2015,02,05,08,19,8.70
2015,02,05,08,20,8.70
2015,02,05,08,21,8.70
2015,02,05,08,22,8.70
2015,02,05,08,23,8.70
2015,02,05,08,24,8.70
2015,02,05,08,25,8.70
2015,02,05,08,26,8.70
2015,02,05,08,27,8.70
2015,02,05,08,28,8.70
2015,02,05,08,29,8.80
2015,02,05,08,30,8.80
2015,02,05,08,31,8.80
2015,02,05,08,32,8.80
2015,02,05,08,33,8.80
2015,02,05,08,34,8.80
2015,02,05,08,35,8.80
2015,02,05,08,36,8.80
2015,02,05,08,37,8.80
2015,02,05,08,38,8.80
2015,02,05,08,39,8.80
2015,02,05,08,40,8.80
2015,02,05,08,41,8.80
2015,02,05,08,42,8.80
2015,02,05,08,43,8.80
2015,02,05,08,44,8.80
2015,02,05,08,45,8.80
2015,02,05,08,46,8.90
2015,02,05,08,47,8.90
2015,02,05,08,48,8.90
2015,02,05,08,49,8.90
2015,02,05,08,50,8.90
2015,02,05,08,51,8.90
2015,02,05,08,52,8.90
2015,02,05,08,53,8.90
2015,02,05,08,54,8.90
2015,02,05,08,55,8.90
2015,02,05,08,56,8.90
2015,02,05,08,57,8.90
2015,02,05,08,58,8.90
2015,02,05,08,59,8.90
2015,02,05,09,00,8.90
2015,02,05,09,01,8.90
2015,02,05,09,02,8.90
2015,02,05,09,03,8.90
2015,02,05,09,04,8.90
2015,02,05,09,05,8.90
2015,02,05,09,06,8.90
2015,02,05,09,07,8.90
2015,02,05,09,08,8.90
2015,02,05,09,09,8.90
2015,02,05,09,10,8.90
2015,02,05,09,11,8.90
2015,02,05,09,12,8.90
2015,02,05,09,13,8.90
2015,02,05,09,14,8.90
2015,02,05,09,15,8.90
2015,02,05,09,16,8.90
2015,02,05,09,17,8.90
2015,02,05,09,18,8.90
2015,02,05,09,19,8.90
2015,02,05,09,20,8.90
2015,02,05,09,21,8.90
2015,02,05,09,22,8.90
2015,02,05,09,23,8.90
2015,02,05,09,24,8.90
2015,02,05,09,25,8.90
2015,02,05,09,26,8.90
2015,02,05,09,27,8.90
2015,02,05,09,28,9.00
2015,02,05,09,29,9.00
2015,02,05,09,30,9.00
2015,02,05,09,31,9.00
2015,02,05,09,32,8.90
2015,02,05,09,33,9.00
2015,02,05,09,34,8.90
2015,02,05,09,35,8.90
2015,02,05,09,36,8.90
2015,02,05,09,37,8.90
2015,02,05,09,38,8.90
2015,02,05,09,39,8.90
2015,02,05,09,40,8.90
2015,02,05,09,41,8.90
2015,02,05,09,42,8.90
2015,02,05,09,43,8.90
2015,02,05,09,44,8.90
2015,02,05,09,45,8.90
2015,02,05,09,46,8.90
2015,02,05,09,47,8.90
2015,02,05,09,48,8.90
2015,02,05,09,49,8.90
2015,02,05,09,50,8.90
2015,02,05,09,51,8.90
2015,02,05,09,52,8.90
2015,02,05,09,53,8.90
2015,02,05,09,54,8.90
2015,02,05,09,55,8.90
2015,02,05,09,56,8.90
2015,02,05,09,57,9.00
2015,02,05,09,58,9.00
2015,02,05,09,59,9.00
2015,02,05,10,00,9.00
2015,02,05,10,01,9.00
2015,02,05,10,02,9.00
2015,02,05,10,03,9.00
2015,02,05,10,04,9.00
2015,02,05,10,05,9.00
2015,02,05,10,06,9.00
2015,02,05,10,07,9.10
2015,02,05,10,08,9.00
2015,02,05,10,09,9.00
2015,02,05,10,10,9.00
2015,02,05,10,11,9.10
2015,02,05,10,12,9.10
2015,02,05,10,13,9.10
2015,02,05,10,14,9.10
2015,02,05,10,15,9.10
2015,02,05,10,16,9.10
2015,02,05,10,17,9.10
2015,02,05,10,18,9.10
2015,02,05,10,19,9.20
2015,02,05,10,20,9.20
2015,02,05,10,21,9.20
2015,02,05,10,22,9.20
2015,02,05,10,23,9.20
2015,02,05,10,24,9.20
2015,02,05,10,25,9.20
2015,02,05,10,26,9.20
2015,02,05,10,27,9.20
2015,02,05,10,28,9.20
2015,02,05,10,29,9.20
2015,02,05,10,30,9.20
2015,02,05,10,31,9.20
2015,02,05,10,32,9.20
2015,02,05,10,33,9.20
2015,02,05,10,34,9.20
2015,02,05,10,35,9.20
2015,02,05,10,36,9.30
2015,02,05,10,37,9.30
2015,02,05,10,38,9.30
2015,02,05,10,39,9.30
2015,02,05,10,40,9.30
2015,02,05,10,41,9.30
2015,02,05,10,42,9.30
2015,02,05,10,43,9.30
2015,02,05,10,44,9.30
2015,02,05,10,45,9.30
2015,02,05,10,46,9.30
2015,02,05,10,47,9.30
2015,02,05,10,48,9.30
2015,02,05,10,49,9.30
2015,02,05,10,50,9.30
2015,02,05,10,51,9.30
2015,02,05,10,52,9.30
2015,02,05,10,53,9.30
2015,02,05,10,54,9.30
2015,02,05,10,55,9.30
2015,02,05,10,56,9.30
2015,02,05,10,57,9.30
2015,02,05,10,58,9.30
2015,02,05,10,59,9.30
2015,02,05,11,00,9.30
2015,02,05,11,01,9.30
2015,02,05,11,02,9.20
2015,02,05,11,03,9.20
2015,02,05,11,04,9.20
2015,02,05,11,05,9.20
2015,02,05,11,06,9.20
2015,02,05,11,07,9.30
2015,02,05,11,08,9.30
2015,02,05,11,09,9.30
2015,02,05,11,10,9.30
2015,02,05,11,11,9.30
2015,02,05,11,12,9.30
2015,02,05,11,13,9.30
2015,02,05,11,14,9.40
2015,02,05,11,15,9.40
2015,02,05,11,16,9.40
2015,02,05,11,17,9.40
2015,02,05,11,18,9.40
2015,02,05,11,19,9.50
2015,02,05,11,20,9.50
2015,02,05,11,21,9.50
2015,02,05,11,22,9.60
2015,02,05,11,23,9.60
2015,02,05,11,24,9.60
2015,02,05,11,25,9.60
2015,02,05,11,26,9.70
2015,02,05,11,27,9.80
2015,02,05,11,28,9.80
2015,02,05,11,29,9.90
2015,02,05,11,30,10.00
2015,02,05,11,31,10.20
2015,02,05,11,32,10.30
2015,02,05,11,33,10.40
2015,02,05,11,34,10.50
2015,02,05,11,35,10.60
2015,02,05,11,36,10.70
2015,02,05,11,37,10.70
2015,02,05,11,38,10.80
2015,02,05,11,39,10.90
2015,02,05,11,40,11.00
2015,02,05,11,41,11.10
2015,02,05,11,42,11.10
2015,02,05,11,43,11.10
2015,02,05,11,44,11.20
2015,02,05,11,45,11.20
2015,02,05,11,46,11.20
2015,02,05,11,47,11.20
2015,02,05,11,48,11.20
2015,02,05,11,49,11.20
2015,02,05,11,50,11.20
2015,02,05,11,51,11.30
2015,02,05,11,52,11.30
2015,02,05,11,53,11.30
2015,02,05,11,54,11.40
2015,02,05,11,55,11.40
2015,02,05,11,56,11.40
2015,02,05,11,57,11.40
2015,02,05,11,58,11.50
2015,02,05,11,59,11.50
2015,02,05,12,00,11.60
2015,02,05,12,01,11.60
2015,02,05,12,02,11.60
2015,02,05,12,03,11.60
2015,02,05,12,04,11.60
2015,02,05,12,05,11.70
2015,02,05,12,06,11.70
2015,02,05,12,07,11.70
2015,02,05,12,08,11.80
2015,02,05,12,09,11.80
2015,02,05,12,10,11.80
2015,02,05,12,11,11.80
2015,02,05,12,12,11.90
2015,02,05,12,13,11.90
2015,02,05,12,14,11.90
2015,02,05,12,15,11.90
2015,02,05,12,16,12.00
2015,02,05,12,17,12.00
2015,02,05,12,18,12.00
2015,02,05,12,19,12.00
2015,02,05,12,20,12.10
2015,02,05,12,21,12.10
2015,02,05,12,22,12.10
2015,02,05,12,23,12.10
2015,02,05,12,24,12.10
2015,02,05,12,25,12.20
2015,02,05,12,26,12.20
2015,02,05,12,27,12.20
2015,02,05,12,28,12.20
2015,02,05,12,29,12.20
2015,02,05,12,30,12.20
2015,02,05,12,31,12.20
2015,02,05,12,32,12.20
2015,02,05,12,33,12.20
2015,02,05,12,34,12.20
2015,02,05,12,35,12.20
2015,02,05,12,36,12.20
2015,02,05,12,37,12.20
2015,02,05,12,38,12.30
2015,02,05,12,39,12.30
2015,02,05,12,40,12.30
2015,02,05,12,41,12.20
2015,02,05,12,42,12.20
2015,02,05,12,43,12.20
2015,02,05,12,44,12.10
2015,02,05,12,45,12.10
2015,02,05,12,46,12.00
2015,02,05,12,47,12.00
2015,02,05,12,48,11.90
2015,02,05,12,49,11.90
2015,02,05,12,50,11.80
2015,02,05,12,51,11.80
2015,02,05,12,52,11.80
2015,02,05,12,53,11.80
2015,02,05,12,54,11.80
2015,02,05,12,55,11.70
2015,02,05,12,56,11.70
2015,02,05,12,57,11.70
2015,02,05,12,58,11.70
2015,02,05,12,59,11.70
2015,02,05,13,00,11.80
2015,02,05,13,01,11.80
2015,02,05,13,02,11.80
2015,02,05,13,03,11.80
2015,02,05,13,04,11.80
2015,02,05,13,05,11.80
2015,02,05,13,06,11.80
2015,02,05,13,07,11.80
2015,02,05,13,08,11.80
2015,02,05,13,09,11.90
2015,02,05,13,10,12.00
2015,02,05,13,11,12.00
2015,02,05,13,12,12.10
2015,02,05,13,13,12.20
2015,02,05,13,14,12.30
2015,02,05,13,15,12.40
2015,02,05,13,16,12.50
2015,02,05,13,17,12.60
2015,02,05,13,18,12.60
2015,02,05,13,19,12.60
2015,02,05,13,20,12.70
2015,02,05,13,21,12.70
2015,02,05,13,22,12.60
2015,02,05,13,23,12.60
2015,02,05,13,24,12.60
2015,02,05,13,25,12.50
2015,02,05,13,26,12.50
2015,02,05,13,27,12.50
2015,02,05,13,28,12.40
2015,02,05,13,29,12.40
2015,02,05,13,30,12.40
2015,02,05,13,31,12.40
2015,02,05,13,32,12.40
2015,02,05,13,33,12.40
2015,02,05,13,34,12.40
2015,02,05,13,35,12.50
2015,02,05,13,36,12.50
2015,02,05,13,37,12.50
2015,02,05,13,38,12.60
2015,02,05,13,39,12.60
2015,02,05,13,40,12.60
2015,02,05,13,41,12.70
2015,02,05,13,42,12.70
2015,02,05,13,43,12.70
2015,02,05,13,44,12.80
2015,02,05,13,45,12.80
2015,02,05,13,46,12.80
2015,02,05,13,47,12.80
2015,02,05,13,48,12.80
2015,02,05,13,49,12.80
2015,02,05,13,50,12.90
2015,02,05,13,51,12.90
2015,02,05,13,52,12.90
2015,02,05,13,53,12.90
2015,02,05,13,54,12.90
2015,02,05,13,55,12.90
2015,02,05,13,56,12.90
2015,02,05,13,57,12.90
2015,02,05,13,58,12.90
2015,02,05,13,59,12.90
2015,02,05,14,00,12.90
2015,02,05,14,01,12.90
2015,02,05,14,02,12.90
2015,02,05,14,03,12.90
2015,02,05,14,04,13.00
2015,02,05,14,05,12.90
2015,02,05,14,06,13.00
2015,02,05,14,07,12.90
2015,02,05,14,08,12.90
2015,02,05,14,09,12.90
2015,02,05,14,10,12.90
2015,02,05,14,11,12.80
2015,02,05,14,12,12.80
2015,02,05,14,13,12.80
2015,02,05,14,14,12.70
2015,02,05,14,15,12.70
2015,02,05,14,16,12.60
2015,02,05,14,17,12.60
2015,02,05,14,18,12.50
2015,02,05,14,19,12.50
2015,02,05,14,20,12.40
2015,02,05,14,21,12.40
2015,02,05,14,22,12.40
2015,02,05,14,23,12.30
2015,02,05,14,24,12.30
2015,02,05,14,25,12.30
2015,02,05,14,26,12.20
2015,02,05,14,27,12.20
2015,02,05,14,28,12.20
2015,02,05,14,29,12.20
2015,02,05,14,30,12.10
2015,02,05,14,31,12.10
2015,02,05,14,32,12.10
2015,02,05,14,33,12.10
2015,02,05,14,34,12.00
2015,02,05,14,35,12.00
2015,02,05,14,36,12.00
2015,02,05,14,37,12.00
2015,02,05,14,38,12.00
2015,02,05,14,39,12.00
2015,02,05,14,40,12.00
2015,02,05,14,41,12.00
2015,02,05,14,42,12.00
2015,02,05,14,43,12.00
2015,02,05,14,44,12.00
2015,02,05,14,45,12.00
2015,02,05,14,46,12.00
2015,02,05,14,47,12.00
2015,02,05,14,48,12.00
2015,02,05,14,49,12.00
2015,02,05,14,50,11.90
2015,02,05,14,51,12.00
2015,02,05,14,52,11.90
2015,02,05,14,53,12.00
2015,02,05,14,54,12.00
2015,02,05,14,55,12.00
2015,02,05,14,56,12.00
2015,02,05,14,57,12.00
2015,02,05,14,58,12.10
2015,02,05,14,59,12.10
2015,02,05,15,00,12.10
2015,02,05,15,01,12.10
2015,02,05,15,02,12.10
2015,02,05,15,03,12.10
2015,02,05,15,04,12.10
2015,02,05,15,05,12.10
2015,02,05,15,06,12.10
2015,02,05,15,07,12.10
2015,02,05,15,08,12.10
2015,02,05,15,09,12.10
2015,02,05,15,10,12.10
2015,02,05,15,11,12.10
2015,02,05,15,12,12.10
2015,02,05,15,13,12.10
2015,02,05,15,14,12.10
2015,02,05,15,15,12.10
2015,02,05,15,16,12.10
2015,02,05,15,17,12.20
2015,02,05,15,18,12.20
2015,02,05,15,19,12.20
2015,02,05,15,20,12.20
2015,02,05,15,21,12.20
2015,02,05,15,22,12.20
2015,02,05,15,23,12.20
2015,02,05,15,24,12.20
2015,02,05,15,25,12.20
2015,02,05,15,26,12.20
2015,02,05,15,27,12.20
2015,02,05,15,28,12.10
2015,02,05,15,29,12.10
2015,02,05,15,30,12.10
2015,02,05,15,31,12.00
2015,02,05,15,32,12.00
2015,02,05,15,33,11.90
2015,02,05,15,34,11.90
2015,02,05,15,35,11.80
2015,02,05,15,36,11.80
2015,02,05,15,37,11.80
2015,02,05,15,38,11.80
2015,02,05,15,39,11.80
2015,02,05,15,40,11.80
2015,02,05,15,41,11.80
2015,02,05,15,42,11.90
2015,02,05,15,43,11.90
2015,02,05,15,44,11.90
2015,02,05,15,45,11.90
2015,02,05,15,46,11.90
2015,02,05,15,47,11.90
2015,02,05,15,48,11.80
2015,02,05,15,49,11.80
2015,02,05,15,50,11.80
2015,02,05,15,51,11.80
2015,02,05,15,52,11.70
2015,02,05,15,53,11.70
2015,02,05,15,54,11.70
2015,02,05,15,55,11.60
2015,02,05,15,56,11.60
2015,02,05,15,57,11.50
2015,02,05,15,58,11.50
2015,02,05,15,59,11.40
2015,02,05,16,00,11.40
2015,02,05,16,01,11.30
2015,02,05,16,02,11.30
2015,02,05,16,03,11.20
2015,02,05,16,04,11.20
2015,02,05,16,05,11.20
2015,02,05,16,06,11.10
2015,02,05,16,07,11.10
2015,02,05,16,08,11.10
2015,02,05,16,09,11.10
2015,02,05,16,10,11.00
2015,02,05,16,11,11.00
2015,02,05,16,12,11.00
2015,02,05,16,13,11.00
2015,02,05,16,14,11.00
2015,02,05,16,15,11.00
2015,02,05,16,16,11.00
2015,02,05,16,17,11.00
2015,02,05,16,18,11.00
2015,02,05,16,19,11.00
2015,02,05,16,20,11.00
2015,02,05,16,21,11.10
2015,02,05,16,22,11.10
2015,02,05,16,23,11.10
2015,02,05,16,24,11.10
2015,02,05,16,25,11.00
2015,02,05,16,26,11.00
2015,02,05,16,27,11.00
2015,02,05,16,28,11.10
2015,02,05,16,29,11.10
2015,02,05,16,30,11.10
2015,02,05,16,31,11.10
2015,02,05,16,32,11.20
2015,02,05,16,33,11.20
2015,02,05,16,34,11.20
2015,02,05,16,35,11.30
2015,02,05,16,36,11.30
2015,02,05,16,37,11.30
2015,02,05,16,38,11.40
2015,02,05,16,39,11.40
2015,02,05,16,40,11.50
2015,02,05,16,41,11.50
2015,02,05,16,42,11.60
2015,02,05,16,43,11.60
2015,02,05,16,44,11.70
2015,02,05,16,45,11.70
2015,02,05,16,46,11.70
2015,02,05,16,47,11.80
2015,02,05,16,48,11.80
2015,02,05,16,49,11.80
2015,02,05,16,50,11.80
2015,02,05,16,51,11.80
2015,02,05,16,52,11.80
2015,02,05,16,53,11.80
2015,02,05,16,54,11.80
2015,02,05,16,55,11.80
2015,02,05,16,56,11.80
2015,02,05,16,57,11.70
2015,02,05,16,58,11.70
2015,02,05,16,59,11.70
2015,02,05,17,00,11.70
2015,02,05,17,01,11.70
2015,02,05,17,02,11.60
2015,02,05,17,03,11.60
2015,02,05,17,04,11.60
2015,02,05,17,05,11.50
2015,02,05,17,06,11.50
2015,02,05,17,07,11.40
2015,02,05,17,08,11.40
2015,02,05,17,09,11.30
2015,02,05,17,10,11.30
2015,02,05,17,11,11.20
2015,02,05,17,12,11.20
2015,02,05,17,13,11.10
2015,02,05,17,14,11.10
2015,02,05,17,15,11.10
2015,02,05,17,16,11.00
2015,02,05,17,17,10.90
2015,02,05,17,18,10.90
2015,02,05,17,19,10.90
2015,02,05,17,20,10.80
2015,02,05,17,21,10.80
2015,02,05,17,22,10.80
2015,02,05,17,23,10.80
2015,02,05,17,24,10.70
2015,02,05,17,25,10.70
2015,02,05,17,26,10.70
2015,02,05,17,27,10.70
2015,02,05,17,28,10.70
2015,02,05,17,29,10.70
2015,02,05,17,30,10.60
2015,02,05,17,31,10.60
2015,02,05,17,32,10.60
2015,02,05,17,33,10.60
2015,02,05,17,34,10.60
2015,02,05,17,35,10.60
2015,02,05,17,36,10.60
2015,02,05,17,37,10.60
2015,02,05,17,38,10.60
2015,02,05,17,39,10.60
2015,02,05,17,40,10.60
2015,02,05,17,41,10.60
2015,02,05,17,42,10.60
2015,02,05,17,43,10.60
2015,02,05,17,44,10.60
2015,02,05,17,45,10.60
2015,02,05,17,46,10.60
2015,02,05,17,47,10.60
2015,02,05,17,48,10.60
2015,02,05,17,49,10.60